Louisburg, NC

10:03 PM EST on February 05, 2016 (GMT -0500)
Franklin County

Weather History for KLHZ - October, 2012

Change the Weather History Date:

Monday, October 8, 2012

  Actual Average (KRDU) Record (KRDU)
Temperature  
Mean Temperature 49 °F 64 °F  
Max Temperature 50 °F 75 °F 94 °F (1941)
Min Temperature 46 °F 53 °F 35 °F (1964)
Degree Days  
Heating Degree Days 16 4  
Month to date heating degree days 23  
Since 1 July heating degree days 44  
Cooling Degree Days 0 2  
Month to date cooling degree days 24  
Year to date cooling degree days 1692  
Moisture  
Dew Point 45 °F    
Average Humidity 87    
Maximum Humidity 100    
Minimum Humidity 71    
Precipitation  
Precipitation 0.44 in 0.11 in 2.54 in (1996)
Month to date precipitation 0.89  
Year to date precipitation 34.79  
Sea Level Pressure  
Sea Level Pressure 30.18 in    
Wind  
Wind Speed 5 mph (North)    
Max Wind Speed 10 mph    
Max Gust Speed 16 mph    
Visibility 8 miles    
Events Rain    
T = Trace of Precipitation, MM = Missing Value Source: NWS Daily Summary

Daily Weather History Graph

Daily Weather History Graph

Search for Another Location

Airport or City:

Trip Planner

Search our weather history database for the weather conditions in past years. The results will help you decide how hot, cold, wet, or windy it might be!

Date:

Astronomy

Oct. 08, 2012 Rise Set
Actual Time 7:14 AM EDT 6:46 PM EDT
Civil Twilight 6:48 AM EDT 7:11 PM EDT
Nautical Twilight 6:19 AM EDT 7:41 PM EDT
Astronomical Twilight 5:49 AM EDT 8:11 PM EDT
Moon 12:04 AM EDT (10/8) 2:23 PM EDT (10/8)
Length of Visible Light 12h 23m
Length of Day
11h 31m
Waning Gibbous, 46% of the Moon is Illuminated
Oct 8
Waning Gibbous
Oct 15
New
Oct 21
First Quarter
Oct 29
Full
Nov 6
Last Quarter

Hourly Weather History & Observations

Time (EDT) Temp. Windchill Dew Point Humidity Pressure Visibility Wind Dir Wind Speed Gust Speed Precip Events Conditions
12:15 AM - - - N/A% 30.15 in 10.0 mi Calm Calm - N/A   Overcast
12:35 AM - - - N/A% 30.17 in 7.0 mi Calm Calm - N/A   Overcast
12:55 AM - - - N/A% 30.17 in 10.0 mi Calm Calm - N/A   Overcast
1:15 AM - - - N/A% 30.17 in 10.0 mi Calm Calm - N/A   Overcast
1:35 AM - - - N/A% 30.16 in 10.0 mi North 4.6 mph - N/A   Overcast
1:55 AM - - - N/A% 30.17 in 10.0 mi Calm Calm - N/A   Overcast
2:15 AM - - - N/A% 30.17 in 10.0 mi North 3.5 mph - N/A   Overcast
2:35 AM - - - N/A% 30.17 in 10.0 mi North 3.5 mph - N/A   Overcast
2:55 AM - - - N/A% 30.16 in 10.0 mi North 3.5 mph - N/A   Overcast
3:15 AM - - - N/A% 30.17 in 10.0 mi North 3.5 mph - N/A   Overcast
3:35 AM - - - N/A% 30.16 in 10.0 mi North 6.9 mph - N/A   Overcast
3:55 AM - - - N/A% 30.17 in 10.0 mi North 5.8 mph - N/A   Overcast
4:15 AM - - - N/A% 30.17 in 10.0 mi North 4.6 mph - N/A   Overcast
4:35 AM - - - N/A% 30.17 in 10.0 mi NNE 6.9 mph - N/A   Overcast
4:55 AM - - - N/A% 30.17 in 10.0 mi NNE 6.9 mph - N/A   Overcast
5:15 AM - - - N/A% 30.18 in 10.0 mi North 6.9 mph - N/A   Overcast
5:35 AM - - - N/A% 30.19 in 10.0 mi North 5.8 mph - N/A   Overcast
5:55 AM - - - N/A% 30.19 in 10.0 mi North 8.1 mph - N/A   Overcast
6:15 AM - - - N/A% 30.19 in 10.0 mi North 6.9 mph - N/A   Overcast
6:35 AM - - - N/A% 30.19 in 10.0 mi North 8.1 mph - N/A   Overcast
6:55 AM - - - N/A% 30.20 in 10.0 mi NNE 9.2 mph - N/A   Overcast
7:15 AM - - - N/A% 30.21 in 10.0 mi NE 8.1 mph - N/A   Overcast
7:35 AM - - - N/A% 30.22 in 10.0 mi NNE 6.9 mph - N/A   Overcast
7:55 AM - - - N/A% 30.22 in 10.0 mi North 5.8 mph - N/A   Overcast
8:15 AM - - - N/A% 30.23 in 10.0 mi NNE 8.1 mph - N/A   Overcast
8:35 AM 50.0 °F - 50.0 °F 100% 30.24 in 10.0 mi NNE 8.1 mph - N/A   Overcast
8:55 AM 50.0 °F - 50.0 °F 100% 30.24 in 10.0 mi NNE 8.1 mph - N/A   Overcast
9:15 AM 50.0 °F - 50.0 °F 100% 30.25 in 10.0 mi North 6.9 mph - N/A   Overcast
9:35 AM 50.0 °F - 50.0 °F 100% 30.24 in 10.0 mi NNE 9.2 mph - N/A   Overcast
9:55 AM 50.0 °F - 50.0 °F 100% 30.24 in 10.0 mi NE 9.2 mph - N/A   Overcast
10:15 AM 50.0 °F - 41.0 °F 71% 30.24 in 10.0 mi NNE 9.2 mph - N/A   Overcast
10:35 AM 50.0 °F - 42.8 °F 76% 30.24 in 10.0 mi NNE 5.8 mph - N/A   Overcast
10:55 AM 50.0 °F - 42.8 °F 76% 30.23 in 10.0 mi NE 5.8 mph - N/A   Overcast
11:15 AM 50.0 °F - 42.8 °F 76% 30.23 in 10.0 mi North 5.8 mph - N/A   Overcast
11:35 AM 50.0 °F - 42.8 °F 76% 30.23 in 10.0 mi NNE 5.8 mph - N/A   Overcast
11:55 AM 50.0 °F - 42.8 °F 76% 30.24 in 10.0 mi North 5.8 mph - N/A   Overcast
12:15 PM 48.2 °F - 42.8 °F 82% 30.22 in 10.0 mi North 6.9 mph - N/A   Overcast
12:35 PM 48.2 °F - 42.8 °F 82% 30.20 in 10.0 mi NNE 8.1 mph - N/A   Overcast
12:55 PM 46.4 °F 43.5 °F 46.4 °F 100% 30.20 in 4.0 mi North 5.8 mph - 0.05 in Rain Heavy Rain
1:15 PM - - - N/A% 30.18 in 4.0 mi NNE 5.8 mph - 0.06 in Rain Rain
1:35 PM - - - N/A% 30.19 in 4.0 mi NNW 4.6 mph - 0.10 in Rain Light Rain
1:55 PM - - - N/A% 30.19 in 3.0 mi North 5.8 mph - 0.18 in Rain Rain
2:15 PM - - - N/A% 30.17 in 5.0 mi North 6.9 mph - 0.03 in Rain Light Rain
2:35 PM - - - N/A% 30.17 in 4.0 mi North 5.8 mph - 0.06 in Rain Light Rain
2:55 PM - - - N/A% 30.17 in 5.0 mi NNW 4.6 mph - 0.07 in Rain Light Rain
3:15 PM - - - N/A% 30.15 in 4.0 mi North 10.4 mph - 0.05 in Rain Rain
3:35 PM - - - N/A% 30.16 in 5.0 mi North 8.1 mph - 0.08 in Rain Rain
3:55 PM - - - N/A% 30.16 in 5.0 mi North 5.8 mph 16.1 mph 0.09 in Rain Light Rain
4:15 PM - - - N/A% 30.17 in 4.0 mi North 5.8 mph - 0.02 in Rain Light Rain
4:35 PM - - - N/A% 30.15 in 5.0 mi North 6.9 mph - 0.03 in   Light Drizzle
4:55 PM - - - N/A% 30.15 in 7.0 mi NNE 6.9 mph - 0.03 in   Light Drizzle
5:15 PM - - - N/A% 30.14 in 7.0 mi North 8.1 mph - 0.01 in   Light Drizzle
5:35 PM - - - N/A% 30.15 in 7.0 mi North 5.8 mph - 0.01 in   Overcast
5:55 PM - - - N/A% 30.15 in 7.0 mi North 6.9 mph - 0.01 in   Overcast
6:15 PM - - - N/A% 30.17 in 7.0 mi North 3.5 mph - N/A   Overcast
6:35 PM - - - N/A% 30.16 in 10.0 mi North 5.8 mph - N/A   Overcast
6:55 PM - - - N/A% 30.16 in 10.0 mi North 5.8 mph - N/A   Overcast
7:15 PM - - - N/A% 30.16 in 7.0 mi North 8.1 mph - N/A   Overcast
7:35 PM - - - N/A% 30.16 in 7.0 mi North 8.1 mph - N/A   Overcast
7:55 PM - - - N/A% 30.16 in 7.0 mi North 6.9 mph - N/A Rain Rain
8:15 PM - - - N/A% 30.16 in 7.0 mi North 5.8 mph - N/A   Light Drizzle
8:35 PM - - - N/A% 30.16 in 10.0 mi NNE 9.2 mph - N/A   Light Drizzle
8:55 PM - - - N/A% 30.16 in 10.0 mi North 6.9 mph - N/A   Overcast
9:15 PM - - - N/A% 30.15 in 7.0 mi North 8.1 mph - N/A   Overcast
9:35 PM - - - N/A% 30.16 in 7.0 mi North 6.9 mph - N/A   Overcast
9:55 PM - - - N/A% 30.16 in 7.0 mi North 5.8 mph - N/A   Overcast
10:15 PM - - - N/A% 30.15 in 7.0 mi North 8.1 mph - N/A   Overcast
10:35 PM - - - N/A% 30.15 in 7.0 mi North 5.8 mph - N/A Rain Rain
10:55 PM - - - N/A% 30.16 in 5.0 mi North 5.8 mph - N/A   Light Drizzle
11:15 PM - - - N/A% 30.15 in 5.0 mi North 4.6 mph - N/A   Light Drizzle
11:55 PM - - - N/A% 30.15 in 4.0 mi North 5.8 mph - 0.01 in   Light Drizzle